KAITUO 1B
1 40912U 15049P   18100.88658747  .00001162  00000-0  59394-4 0  9992
2 40912  97.4529 109.1713 0013559 242.7835 235.5370 15.18586153141453
TIANWANG 1C (TW-1C)
1 40926U 15051B   18100.86356404  .00007203  00000-0  13982-3 0  9997
2 40926  97.1922 143.5432 0010991 152.9645 256.1141 15.47890270142894
TIANWANG 1B (TW-1B)
1 40927U 15051C   18100.83244618  .00007026  00000-0  14223-3 0  9990
2 40927  97.2011 143.3809 0010515 164.5119 250.4177 15.46686065142809
TIANWANG 1A (TW-1A)
1 40928U 15051D   18100.89646155  .00002803  00000-0  76232-4 0  9996
2 40928  97.1935 136.2051 0011242 195.9038 288.3987 15.38311084142435
LAPAN A2
1 40931U 15052B   18100.85137370  .00000650  00000-0  14535-5 0  9998
2 40931   6.0024 270.3117 0012746 134.3007 225.8164 14.76570934137038
LQSAT
1 40958U 15057A   18100.84847909  .00000017  00000-0  10331-4 0  9993
2 40958  97.9436 175.4555 0017838 188.3798 171.7108 14.73024328134938
CHUBUSAT 2
1 41338U 16012B   18100.23728359 +.00000404 +00000-0 +24907-4 0  9992
2 41338 031.0043 025.3544 0013839 121.0545 239.1450 14.99951246117628
CHUBUSAT 3
1 41339U 16012C   18100.79187439  .00000351  00000-0  20682-4 0  9999
2 41339  31.0121  20.5260 0013640 133.5622 226.6146 15.00141260117692
OUFTI-1
1 41458U 16025C   18100.60196519  .00001332  00000-0  73396-4 0  9994
2 41458  98.1428 159.8248 0170806  15.0109 345.6082 15.04458806107277
E-STAR-2
1 41459U 16025D   18100.79671034  .00000869  00000-0  49718-4 0  9990
2 41459  98.1434 159.8951 0171889  14.8970 345.7220 15.04203129107294
AAUSAT 4
1 41460U 16025E   18100.70465034  .00002512  00000-0  13369-3 0  9993
2 41460  98.1375 160.1954 0163095  11.5709 348.9192 15.05558865107331
NUSAT 1
1 41557U 16033B   18100.66017581  .00001653  00000-0  62814-4 0  9999
2 41557  97.4378 185.0022 0014833  42.0524 318.1851 15.28161720103842
BEESAT 4
1 41619U 16040W   18100.22123442  .00001742  00000-0  79427-4 0  9999
2 41619  97.4217 164.2921 0013402 107.1110 253.1595 15.21910104 87750
PRATHAM
1 41783U 16059A   18100.76594617  .00000067  00000-0  22425-4 0  9991
2 41783  98.1246 163.3905 0032456 308.7233  51.1068 14.62911654 82109
ALSAT 1N
1 41789U 16059G   18100.64327334  .00000072  00000-0  22965-4 0  9999
2 41789  98.1252 164.3563 0027094 301.8182  58.0384 14.64140590 82137
NAYIF 1
1 42017U 17008BX  18100.41693717  .00001762  00000-0  75239-4 0  9994
2 42017  97.4546 165.8634 0004867 253.2437 106.8266 15.24211841 63743
LILACSAT-1
1 42725U 98067ME  18100.80233582  .00029699  00000-0  28675-3 0  9997
2 42725  51.6377 340.9997 0003362 344.1904  15.8987 15.66203061 49945
MAX VALIER SAT
1 42778U 17036P   18100.82383578  .00001179  00000-0  56001-4 0  9993
2 42778  97.4106 161.6349 0011241 310.5950  49.4307 15.21152214 44266
